Voltar ao catálogo

COSMOS 839 DEB

AtivoUNKNOWN
NORAD 10622·DEBRIS·🇷🇺 Russia

Lançado Jul 8, 1976 de Plesetsk Cosmodrome

Loading…

Próximas Passagens (próximas 24 horas)

TLE

AtualizadoSource: Space-Track

Época: Sep 14, 2026, 10:54 UTC

1 10622U 76067AW  26257.45438346 -.00000074  00000-0 -65927-4 0  9992
2 10622  65.9045  65.5440 0736403  91.2819 304.1157 12.33737740259924

Acompanhe COSMOS 839 DEB em tempo real com AllMySat

Download on the App Store